Location: Marseilles
(40.7010°N, 83.3930°W)
Time: 19:03:08
(UTC-04:00)

Cosmos 1459 Rocket - Visible Passes

Search period start: 30 July 2015 00:00
Search period end: 09 August 2015 00:00
Orbit: 937 x 1001 km, 83.0° (Epoch: 30 July)

Date Brightness Start Highest point End Pass type
(mag) Time Alt. Az. Time Alt. Az. Time Alt. Az.
30 Jul 6.9 05:06:14 10° NNE 05:09:40 16° ENE 05:13:26 10° ESE visible
31 Jul 6.3 05:28:31 10° NNE 05:33:38 27° ENE 05:38:56 10° SE visible
01 Aug 5.3 05:51:26 10° N 05:57:24 47° ENE 06:03:26 10° SSE visible
02 Aug 7.0 04:32:35 10° NE 04:34:33 12° ENE 04:36:57 10° E visible
03 Aug 6.6 04:54:06 10° NNE 04:58:37 21° ENE 05:03:23 10° ESE visible
04 Aug 5.7 05:16:48 10° N 05:22:29 36° ENE 05:28:16 10° SE visible
05 Aug 4.6 05:39:57 10° N 05:46:08 63° E 05:52:24 10° SSE visible
06 Aug 6.7 04:19:54 10° NNE 04:23:34 16° ENE 04:27:33 10° ESE visible
07 Aug 6.0 04:42:16 10° NNE 04:47:31 28° ENE 04:52:57 10° SE visible
08 Aug 5.0 05:05:14 10° N 05:11:16 49° ENE 05:17:24 10° SSE visible
